Location: New Frontier Mobile Home Park
(32.8448°N, 116.9675°W)
Time: 22:59:51
(UTC+00:00)

Cosmos 921 Rocket - Pass Details

Date: 14 July 2020
Orbit: 572 x 632 km, 75.8° (Epoch: 05 August)

Event Time Altitude Azimuth Distance (km) Brightness Sun altitude
Rises 10:13:37 0° 350° (N) 2,874 7.1 -26.2°
Reaches altitude 10° 10:15:55 10° 355° (N) 1,957 6.2 -25.9°
Maximum altitude 10:20:12 56° 73° (ENE) 713 3.5 -25.3°
Enters shadow 10:20:44 51° 105° (ESE) 747 3.5 -25.3°
